EHI
33 31 28 26 23 17 13 12 9 8 8 8 6 4 3 3 3 4 6 9 10 9 8 9 12 14 14 13 9 6 4 5 5 3 2 5 6 6 6 5 3 2 3
27 28 28 27 22 16 12 10 9 8 7 7 5 4 3 3 3 4 5 9 10 10 9 10 11 13 13 13 10 7 6 7 7 6 4 5 6 7 7 7 6 4 3
26 26 26 25 20 14 10 8 8 6 5 5 5 5 4 4 4 5 7 9 11 10 10 11 11 11 13 14 12 9 8 9 9 8 6 6 7 8 8 9 9 8 6
30 27 25 23 19 14 10 7 6 4 2 2 3 4 5 5 6 7 9 11 11 10 9 10 10 11 12 14 13 10 9 10 9 8 7 7 8 9 9 9 9 10 9
29 27 25 22 19 14 11 8 5 3 2 1 2 3 4 5 5 6 8 10 9 9 8 8 8 9 10 11 10 9 9 10 9 8 7 8 8 9 9 8 8 8 8
23 22 20 18 16 13 11 9 6 5 4 4 4 4 4 3 2 2 4 5 7 7 8 7 7 7 8 8 6 5 6 7 7 8 8 8 9 9 8 8 7 7 7
17 16 15 14 13 12 10 8 7 8 8 8 7 7 5 3 1 0 0 2 4 6 7 7 6 7 8 9 7 5 4 4 5 6 7 8 8 8 7 6 6 7 7
12 12 12 11 11 11 10 8 9 10 10 9 8 8 8 5 1 0 0 1 3 5 6 6 7 8 10 11 11 9 7 6 5 4 5 6 6 6 5 4 5 7 7
8 8 9 9 10 10 11 11 10 10 8 6 6 7 9 7 3 0 1 2 3 4 6 6 7 8 8 9 11 12 10 9 6 4 3 4 4 4 3 3 4 5 4
8 7 8 9 9 10 11 12 10 8 5 3 3 5 8 8 5 1 1 3 4 6 7 8 7 6 4 5 8 11 11 9 7 5 5 4 4 3 2 1 2 2 1
11 10 9 9 8 8 9 9 8 6 4 2 3 4 5 5 4 1 1 2 4 7 8 9 8 5 1 1 4 9 9 8 8 8 8 6 4 3 2 1 1 1 0
13 12 10 9 9 7 6 5 5 4 3 3 4 5 4 3 2 1 0 1 2 5 7 9 8 3 0 0 2 4 5 6 9 9 8 5 3 1 1 0 0 0 0
12 11 9 9 9 8 6 5 4 4 3 3 4 4 4 2 1 0 0 0 0 2 5 6 5 2 0 0 0 1 2 5 8 7 5 3 2 1 0 0 0 0 0
10 9 9 9 9 7 6 5 4 3 3 3 3 4 3 1 0 0 0 0 1 2 3 3 2 1 1 1 1 2 3 5 6 5 4 3 2 1 0 0 0 0 0
9 9 9 9 7 5 5 4 3 2 2 2 2 2 2 1 1 0 0 1 2 2 2 2 2 3 3 4 4 4 4 4 4 3 3 2 1 0 0 0 0 0 0
9 9 8 7 4 2 3 3 1 1 1 1 1 1 1 2 1 0 0 1 2 3 3 3 3 4 5 5 5 5 4 4 3 3 2 1 0 0 0 0 0 0 0
9 8 5 3 1 0 1 1 1 0 0 0 0 0 1 1 1 0 0 1 1 1 3 3 4 5 5 5 4 3 3 4 3 1 1 0 0 0 0 0 0 0 0
6 4 2 0 0 0 0 0 0 0 0 0 0 0 0 0 0 0 0 0 0 1 2 3 3 3 4 3 2 2 2 3 3 1 0 0 0 0 0 0 0 0 0
2 1 0 1 1 1 1 0 0 0 0 0 0 0 0 0 0 0 0 0 1 1 1 2 1 1 1 1 1 1 1 2 2 1 0 0 0 0 0 0 0 0 0
1 0 1 2 2 2 1 0 0 0 0 0 0 0 0 0 0 0 0 0 0 0 0 0 0 0 0 0 0 0 1 1 1 0 0 0 0 0 1 0 0 0 0
2 1 1 2 2 2 1 0 0 0 0 0 0 0 0 0 0 0 0 0 0 0 0 0 0 0 0 0 0 0 0 0 0 0 0 0 0 0 0 0 0 0 0
2 2 1 1 1 1 0 0 0 0 0 0 0 0 0 0 0 0 0 0 0 0 0 0 0 0 0 0 0 0 0 0 0 0 0 0 0 0 0 0 0 0 0
1 1 1 0 0 0 0 0 0 0 0 0 0 0 0 0 0 0 0 0 0 0 0 0 0 0 0 0 0 0 0 0 0 0 0 0 0 0 0 0 0 0 0
0 0 0 0 0 0 0 0 0 0 0 0 0 0 0 0 0 0 0 0 0 0 0 0 0 0 0 0 0 0 0 0 0 0 0 0 0 0 0 0 0 0 0
0 0 0 0 0 0 0 0 0 0 0 0 0 0 0 0 0 0 0 0 0 0 0 0 0 0 0 0 0 0 0 0 0 0 0 0 0 0 0 0 0 0 0
0 0 0 0 0 0 0 0 0 0 0 0 0 0 0 0 0 0 0 0 0 0 0 0 0 0 0 0 0 0 0 0 0 0 0 0 0 0 0 0 0 0 0
Wind_Speed
7 6 6 6 6 5 4 5 4 4 4 3 3 3 2 2 2 2 2 2 2 2 2 2 2 2 2 2 2 2 3 3 3 2 1 0 1 3 1 2 2 3 3
7 6 6 5 5 5 5 4 4 5 4 4 4 3 3 3 3 3 3 2 2 2 2 2 2 1 2 2 2 2 2 3 4 3 2 2 2 2 2 3 2 2 2
6 7 6 5 5 5 5 4 4 4 4 4 4 4 3 3 3 3 2 2 2 2 2 2 2 2 3 2 3 3 2 2 3 3 3 2 2 2 2 3 2 2 3
6 6 5 5 5 4 4 4 5 4 4 4 4 3 3 3 3 3 2 2 2 2 2 2 2 2 2 3 3 3 3 3 3 3 3 3 2 2 2 3 2 2 2
5 5 4 4 4 4 3 4 4 4 4 4 4 4 4 3 2 2 3 3 2 2 2 2 1 0 1 2 3 2 3 3 3 3 3 3 2 2 3 3 3 2 2
5 4 4 3 4 4 4 4 4 4 4 4 5 4 4 2 2 0 3 2 2 2 2 2 3 3 2 2 2 2 3 4 4 4 3 3 3 3 3 3 3 3 3
4 4 4 3 3 3 4 4 4 4 4 4 4 4 3 2 2 2 3 3 3 2 2 2 2 1 1 1 2 4 4 4 5 5 5 4 4 3 4 5 3 4 4
4 4 4 4 3 3 4 4 3 3 4 4 4 5 4 3 4 4 4 4 3 3 2 2 2 1 1 2 3 2 3 2 3 4 4 4 4 4 5 5 4 5 5
3 3 3 3 3 4 3 3 3 3 4 5 5 5 4 4 5 5 5 4 3 3 2 2 3 2 1 2 4 3 2 2 2 1 1 2 3 4 5 4 4 5 4
2 2 2 3 3 3 3 3 3 3 4 4 4 4 4 4 5 6 6 5 3 3 3 3 3 2 2 2 4 2 2 2 2 2 3 4 4 4 6 6 5 5 4
1 2 2 2 2 2 2 2 3 3 3 3 4 4 4 4 5 6 6 5 4 4 3 3 3 4 3 4 5 3 3 4 3 3 2 2 3 3 4 3 3 4 4
2 2 2 2 2 1 2 2 2 2 3 3 4 4 3 4 3 5 6 6 5 3 3 2 2 5 4 4 3 2 3 5 3 2 2 2 2 2 2 2 2 3 3
2 2 2 2 1 1 2 2 2 3 3 3 3 3 2 2 4 5 6 6 5 4 2 1 1 4 5 5 5 4 4 4 3 3 2 2 2 2 2 2 3 3 4
2 2 2 2 2 2 1 1 1 2 2 2 2 2 1 2 2 3 4 5 6 5 3 4 6 6 5 3 3 4 3 3 3 3 3 3 2 2 2 2 2 3 3
3 2 2 3 2 2 1 1 1 1 2 2 2 2 2 2 2 3 2 2 2 2 3 4 3 3 3 3 3 3 3 3 3 3 3 3 3 3 3 2 3 3 3
3 3 2 2 2 2 2 1 4 2 3 2 3 3 2 2 1 1 1 1 1 2 4 4 3 3 3 2 2 3 3 3 3 3 3 3 3 3 3 3 3 4 4
3 2 2 2 2 2 2 2 2 2 2 1 1 1 1 1 1 1 1 1 3 4 5 3 3 3 3 2 2 2 2 2 3 3 3 3 3 3 3 3 3 3 4
3 2 2 2 2 2 2 2 2 3 2 2 2 2 2 2 2 2 2 3 3 4 3 3 3 3 2 2 2 2 2 2 3 3 3 3 3 3 3 3 3 4 4
3 2 2 2 3 2 3 3 2 2 2 2 2 3 3 3 4 3 4 3 2 2 2 2 2 2 2 2 2 2 2 2 2 3 3 3 3 3 3 3 3 3 4
3 2 3 3 3 3 3 3 2 2 2 2 2 1 2 3 2 2 2 2 2 2 2 2 2 2 2 2 2 3 2 2 2 3 3 3 3 3 3 4 3 3 3
3 3 5 4 3 3 3 3 3 3 2 2 2 1 1 3 2 2 2 2 2 2 2 2 2 2 2 2 3 3 3 2 2 3 3 3 3 3 3 3 3 4 4
3 3 3 3 3 3 3 3 3 3 3 3 2 3 4 3 2 2 2 2 2 2 2 2 3 3 2 2 2 3 3 3 3 2 3 3 3 3 3 3 3 3 3
3 4 4 3 3 3 4 4 3 3 3 2 2 2 2 2 2 2 2 1 1 2 2 2 3 3 2 2 2 3 3 3 2 2 3 3 3 3 3 2 3 3 3
3 3 3 3 3 4 4 4 3 3 3 2 3 2 2 2 2 2 2 2 2 2 2 2 2 2 3 3 2 2 1 2 3 3 4 4 3 3 3 3 3 3 3
3 3 3 3 3 3 3 3 3 3 3 3 3 2 2 2 2 2 2 2 2 2 2 2 2 2 2 3 3 2 3 1 2 3 4 4 3 3 3 3 3 3 3
3 2 3 2 3 3 3 3 3 3 3 3 2 2 3 3 3 3 2 2 2 2 2 2 2 1 2 2 1 2 1 1 2 4 5 3 3 2 3 3 3 3 2
Wind_Direction
170 170 170 172 173 178 186 186 186 193 189 193 196 199 206 212 213 228 249 229 237 238 243 233 237 279 275 267 255 264 267 269 268 278 287 238 267 281 290 276 239 233 184
164 165 169 173 176 181 182 185 187 190 194 189 199 204 214 213 213 225 237 238 238 238 239 240 243 236 246 267 267 257 267 272 266 272 279 269 250 253 265 264 257 247 244
164 168 166 176 183 186 184 187 190 193 197 196 199 203 212 216 216 224 231 239 241 244 243 236 237 246 252 255 264 268 264 251 260 263 270 288 271 258 260 256 251 262 255
165 166 168 178 182 185 188 189 193 195 198 202 204 208 208 211 214 217 216 224 231 235 246 245 246 247 259 265 251 252 261 261 246 254 261 260 261 259 262 259 249 238 261
164 165 171 177 179 183 188 192 196 200 204 206 208 210 212 209 216 221 216 218 225 230 233 238 222 228 334 306 303 295 269 261 259 255 259 264 269 270 266 267 272 271 262
164 160 162 172 181 185 192 197 197 202 209 213 217 216 213 206 95 11 275 238 240 235 235 231 199 196 181 199 282 299 301 281 281 277 271 276 275 273 284 277 274 272 275
159 166 169 170 185 198 202 198 201 199 208 219 221 219 213 180 154 195 254 252 240 237 225 239 264 117 233 252 212 223 241 256 265 279 284 288 282 281 281 275 277 284 292
157 165 170 173 188 203 210 204 202 204 208 215 217 215 213 195 178 198 229 232 238 237 222 217 254 240 281 294 270 261 259 242 245 249 275 281 289 294 279 275 276 264 259
163 167 172 180 194 202 211 212 208 211 216 219 216 215 215 199 181 198 221 220 219 224 222 214 240 221 144 275 255 252 254 232 187 178 285 285 316 294 283 268 262 263 265
169 179 184 193 205 209 207 217 216 215 222 225 217 217 217 215 186 195 219 230 213 210 203 198 188 215 171 246 255 250 248 259 264 207 208 220 230 229 233 248 264 269 273
151 171 181 193 203 205 209 227 224 220 222 226 218 217 221 223 189 190 213 239 229 220 216 212 176 160 179 220 254 257 260 265 253 245 235 224 222 222 218 226 263 275 276
158 165 167 185 208 182 201 227 222 216 213 219 221 222 218 208 199 184 201 231 277 251 242 232 144 152 191 216 234 262 256 257 250 244 243 244 241 243 240 247 260 277 282
172 175 179 192 210 197 206 218 222 215 224 218 220 226 220 201 167 169 187 212 234 250 256 58 141 178 210 211 217 232 232 236 245 249 254 259 267 266 256 231 226 230 240
179 186 193 199 196 190 220 223 243 240 233 235 236 255 257 225 191 174 184 191 198 208 209 178 184 195 214 230 208 211 231 252 262 259 262 267 270 253 248 250 242 238 244
186 194 201 202 186 190 204 6 309 21 3 308 292 274 276 269 17 357 303 222 220 201 213 207 201 194 201 203 211 221 232 229 237 253 263 266 263 261 258 255 256 249 249
195 194 200 204 193 195 180 132 58 53 68 54 13 345 1 34 53 81 56 360 237 223 230 214 213 218 225 226 228 228 229 239 246 247 252 258 262 263 264 261 254 257 260
207 200 217 211 202 203 201 196 170 141 132 114 85 31 9 355 56 148 178 212 231 217 223 227 232 236 237 239 241 245 246 244 256 254 254 260 264 265 266 266 270 271 270
220 192 215 215 223 217 216 224 207 202 192 182 174 169 177 205 207 204 205 214 202 207 232 240 246 250 256 260 261 259 258 250 248 254 258 265 268 264 261 263 265 277 274
230 216 217 230 229 223 225 231 227 220 228 212 196 169 180 197 199 204 210 240 242 225 234 248 263 267 273 280 274 268 261 260 271 270 261 263 267 269 270 272 270 266 272
210 203 231 236 232 227 231 235 234 227 227 234 232 223 191 214 210 188 209 247 255 253 261 259 266 278 278 274 268 264 259 257 260 261 262 263 262 263 265 272 279 275 272
208 191 206 226 232 234 238 239 235 235 227 225 223 134 266 248 238 227 230 237 250 259 263 269 269 263 260 260 265 263 263 268 268 274 273 269 267 263 265 267 269 269 273
217 217 218 223 226 232 244 245 238 228 223 224 211 169 186 235 245 251 249 246 250 250 255 263 272 282 283 274 262 260 264 275 276 271 273 271 264 263 265 268 273 277 275
226 219 221 225 229 213 226 235 236 230 225 216 216 204 194 220 236 241 251 253 261 274 278 274 277 286 297 297 284 263 261 276 287 289 277 271 273 274 277 278 274 272 281
232 232 230 227 231 231 232 234 231 227 223 218 218 218 213 215 226 227 233 232 233 246 255 261 273 295 304 300 286 277 287 306 287 271 272 273 273 281 282 282 276 262 259
233 229 231 232 234 235 238 240 234 226 222 221 219 219 222 222 225 224 224 229 235 238 242 252 262 270 290 301 305 347 34 3 297 297 272 264 264 278 287 290 291 285 273
238 231 232 232 237 240 240 240 239 233 225 227 231 232 236 236 232 224 222 230 237 237 239 242 254 286 288 270 349 34 43 306 271 282 277 267 269 286 299 289 288 282 282